Location: *
(49.5667°N, 1.3667°W)
Time: 11:22:16
(UTC+00:00)

Nadezhda 1 Rocket - Pass Details

Date: 20 September 2019
Orbit: 942 x 1005 km, 83.0° (Epoch: 19 October)

Event Time Altitude Azimuth Distance (km) Brightness Sun altitude
Rises 18:33:59 0° 170° (S) 3,595 6.8 -4.9°
Reaches altitude 10° 18:36:31 10° 165° (SSE) 2,654 6.1 -5.3°
Maximum altitude 18:42:20 52° 91° (E) 1,167 4.1 -6.3°
Drops below altitude 10° 18:48:13 10° 18° (NNE) 2,683 6.2 -7.2°
Sets 18:50:47 0° 13° (NNE) 3,638 7.0 -7.6°
